Location: Chervonnoye
(48.6000°N, 34.4000°E)
Time: 01:49:31
(UTC+00:00)

NOAA 15 - Pass Details

Date: 01 December 2021
Orbit: 797 x 812 km, 98.7° (Epoch: 17 January)

Event Time Altitude Azimuth Distance (km) Brightness Sun altitude
Rises 15:23:00 0° 133° (SE) 3,321 7.5 -14.9°
Reaches altitude 10° 15:25:33 10° 124° (ESE) 2,392 6.7 -15.3°
Maximum altitude 15:30:09 31° 63° (ENE) 1,378 5.3 -16.0°
Drops below altitude 10° 15:34:46 10° 2° (N) 2,397 6.9 -16.8°
Sets 15:37:19 0° 353° (N) 3,330 7.7 -17.2°
